TimeEDT,TemperatureF,Dew PointF,Humidity,Sea Level PressureIn,VisibilityMPH,Wind Direction,Wind SpeedMPH,Gust SpeedMPH,PrecipitationIn,Events,Conditions,WindDirDegrees,DateUTC
12:15 AM,73.6,73.6,100,30.09,10.0,Calm,Calm,-,N/A,,Clear,0,2013-08-08 04:15:00
12:35 AM,74.1,74.1,100,30.09,10.0,Calm,Calm,-,N/A,,Clear,0,2013-08-08 04:35:00
12:55 AM,73.8,73.8,100,30.09,10.0,Calm,Calm,-,N/A,,Clear,0,2013-08-08 04:55:00
1:15 AM,73.4,73.4,100,30.08,7.0,Calm,Calm,-,N/A,,Clear,0,2013-08-08 05:15:00
1:35 AM,73.0,73.0,100,30.08,7.0,Calm,Calm,-,N/A,,Clear,0,2013-08-08 05:35:00
1:55 AM,72.9,72.9,100,30.08,7.0,Calm,Calm,-,N/A,,Clear,0,2013-08-08 05:55:00
2:15 AM,73.0,73.0,100,30.08,10.0,Calm,Calm,-,N/A,,Clear,0,2013-08-08 06:15:00
2:35 AM,73.0,73.0,100,30.07,10.0,Calm,Calm,-,N/A,,Clear,0,2013-08-08 06:35:00
2:55 AM,73.6,73.4,99,30.07,10.0,Calm,Calm,-,N/A,,Clear,0,2013-08-08 06:55:00
3:15 AM,73.8,73.0,98,30.07,10.0,Calm,Calm,-,N/A,,Clear,0,2013-08-08 07:15:00
3:35 AM,73.6,73.0,98,30.07,10.0,Calm,Calm,-,N/A,,Clear,0,2013-08-08 07:35:00
3:55 AM,72.5,72.5,100,30.08,10.0,Calm,Calm,-,N/A,,Clear,0,2013-08-08 07:55:00
4:15 AM,71.8,71.8,100,30.07,7.0,Calm,Calm,-,N/A,,Clear,0,2013-08-08 08:15:00
4:35 AM,71.2,71.2,100,30.07,7.0,Calm,Calm,-,N/A,,Mostly Cloudy,0,2013-08-08 08:35:00
4:55 AM,71.1,71.1,100,30.07,5.0,Calm,Calm,-,N/A,,Scattered Clouds,0,2013-08-08 08:55:00
5:15 AM,70.9,70.9,100,30.07,5.0,Calm,Calm,-,N/A,,Clear,0,2013-08-08 09:15:00
5:35 AM,70.7,70.7,100,30.07,5.0,Calm,Calm,-,N/A,,Clear,0,2013-08-08 09:35:00
5:55 AM,70.7,70.7,100,30.08,5.0,Calm,Calm,-,N/A,,Scattered Clouds,0,2013-08-08 09:55:00
6:15 AM,71.1,71.1,100,30.08,7.0,Calm,Calm,-,N/A,,Mostly Cloudy,0,2013-08-08 10:15:00
6:35 AM,70.9,70.9,100,30.09,7.0,Calm,Calm,-,N/A,,Overcast,0,2013-08-08 10:35:00
6:55 AM,71.1,71.1,100,30.09,7.0,Calm,Calm,-,N/A,,Overcast,0,2013-08-08 10:55:00
7:15 AM,71.2,71.2,100,30.09,5.0,Calm,Calm,-,N/A,,Overcast,0,2013-08-08 11:15:00
7:35 AM,72.0,72.0,100,30.10,10.0,Calm,Calm,-,N/A,,Overcast,0,2013-08-08 11:35:00
7:55 AM,72.9,72.9,100,30.10,10.0,Calm,Calm,-,N/A,,Overcast,0,2013-08-08 11:55:00
8:15 AM,73.6,73.6,100,30.10,10.0,Calm,Calm,-,N/A,,Overcast,0,2013-08-08 12:15:00
8:35 AM,74.3,73.8,98,30.11,10.0,Calm,Calm,-,N/A,,Overcast,0,2013-08-08 12:35:00
8:55 AM,75.2,73.8,95,30.11,10.0,Calm,Calm,-,N/A,,Overcast,0,2013-08-08 12:55:00
9:15 AM,75.6,73.6,94,30.11,10.0,Calm,Calm,-,N/A,,Overcast,0,2013-08-08 13:15:00
9:35 AM,75.4,73.4,94,30.11,10.0,Calm,Calm,-,N/A,,Overcast,0,2013-08-08 13:35:00
9:55 AM,76.3,73.8,92,30.11,10.0,Calm,Calm,-,N/A,,Overcast,0,2013-08-08 13:55:00
10:15 AM,77.0,73.8,90,30.11,10.0,Calm,Calm,-,N/A,,Overcast,0,2013-08-08 14:15:00
10:35 AM,77.7,73.6,87,30.11,10.0,Calm,Calm,-,N/A,,Overcast,0,2013-08-08 14:35:00
10:55 AM,77.7,73.4,86,30.12,10.0,Calm,Calm,-,N/A,,Overcast,0,2013-08-08 14:55:00
11:15 AM,77.9,73.8,87,30.13,10.0,Calm,Calm,-,N/A,,Overcast,0,2013-08-08 15:15:00
11:35 AM,79.0,74.3,85,30.13,10.0,Calm,Calm,-,N/A,,Overcast,0,2013-08-08 15:35:00
11:55 AM,80.1,74.5,83,30.13,10.0,Calm,Calm,-,N/A,,Overcast,0,2013-08-08 15:55:00
12:15 PM,80.8,74.5,81,30.12,10.0,Calm,Calm,-,N/A,,Overcast,0,2013-08-08 16:15:00
12:35 PM,80.8,74.5,81,30.12,10.0,Calm,Calm,-,N/A,,Overcast,0,2013-08-08 16:35:00
12:55 PM,82.0,74.5,78,30.12,10.0,Calm,Calm,-,N/A,,Scattered Clouds,0,2013-08-08 16:55:00
1:15 PM,82.9,75.4,78,30.11,10.0,Calm,Calm,-,N/A,,Clear,0,2013-08-08 17:15:00
1:35 PM,85.8,75.7,72,30.11,10.0,Calm,Calm,-,N/A,,Clear,0,2013-08-08 17:35:00
1:55 PM,84.4,75.4,74,30.11,10.0,Calm,Calm,-,N/A,,Scattered Clouds,0,2013-08-08 17:55:00
2:15 PM,85.8,75.4,71,30.10,10.0,North,4.6,-,N/A,,Scattered Clouds,360,2013-08-08 18:15:00
2:35 PM,86.9,76.5,71,30.10,10.0,NE,3.5,-,N/A,,Scattered Clouds,50,2013-08-08 18:35:00
2:55 PM,86.4,75.7,70,30.09,10.0,Calm,Calm,-,N/A,,Scattered Clouds,0,2013-08-08 18:55:00
3:15 PM,85.5,75.9,73,30.08,10.0,Calm,Calm,-,N/A,,Mostly Cloudy,0,2013-08-08 19:15:00
3:35 PM,86.5,74.8,68,30.08,10.0,Calm,Calm,-,N/A,,Mostly Cloudy,0,2013-08-08 19:35:00
3:55 PM,86.9,74.8,67,30.07,10.0,Calm,Calm,-,N/A,,Overcast,0,2013-08-08 19:55:00
4:15 PM,87.6,75.9,68,30.07,10.0,Calm,Calm,-,N/A,,Overcast,0,2013-08-08 20:15:00
4:35 PM,86.9,75.4,68,30.07,10.0,NNE,4.6,-,N/A,,Mostly Cloudy,30,2013-08-08 20:35:00
4:55 PM,86.4,75.0,69,30.06,10.0,ENE,3.5,-,N/A,,Mostly Cloudy,70,2013-08-08 20:55:00
5:15 PM,86.4,75.0,69,30.06,10.0,ENE,3.5,-,N/A,,Scattered Clouds,70,2013-08-08 21:15:00
5:35 PM,87.6,74.7,65,30.06,10.0,Calm,Calm,-,N/A,,Clear,0,2013-08-08 21:35:00
5:55 PM,88.2,74.8,65,30.05,10.0,Calm,Calm,-,N/A,,Clear,0,2013-08-08 21:55:00
6:15 PM,86.0,76.6,73,30.05,10.0,Calm,Calm,-,N/A,,Scattered Clouds,0,2013-08-08 22:15:00
6:35 PM,82.9,78.4,86,30.05,10.0,Calm,Calm,-,N/A,,Scattered Clouds,0,2013-08-08 22:35:00
6:55 PM,82.6,79.3,90,30.06,10.0,Calm,Calm,-,N/A,,Clear,0,2013-08-08 22:55:00
7:15 PM,81.7,79.7,94,30.07,10.0,Calm,Calm,-,N/A,,Scattered Clouds,0,2013-08-08 23:15:00
7:35 PM,80.8,79.3,95,30.07,10.0,Calm,Calm,-,N/A,,Clear,0,2013-08-08 23:35:00
7:55 PM,80.6,79.7,97,30.07,10.0,Calm,Calm,-,N/A,,Clear,0,2013-08-08 23:55:00
8:15 PM,79.5,78.6,97,30.06,10.0,Calm,Calm,-,N/A,,Clear,0,2013-08-09 00:15:00
8:35 PM,78.6,78.4,99,30.07,10.0,Calm,Calm,-,N/A,,Clear,0,2013-08-09 00:35:00
8:55 PM,78.1,78.1,100,30.08,10.0,Calm,Calm,-,N/A,,Clear,0,2013-08-09 00:55:00
9:15 PM,77.5,77.5,100,30.09,10.0,Calm,Calm,-,N/A,,Scattered Clouds,0,2013-08-09 01:15:00
9:35 PM,77.0,77.0,100,30.10,10.0,Calm,Calm,-,N/A,,Scattered Clouds,0,2013-08-09 01:35:00
9:55 PM,77.0,77.0,100,30.11,10.0,Calm,Calm,-,N/A,,Scattered Clouds,0,2013-08-09 01:55:00
10:15 PM,77.0,77.0,100,30.11,10.0,Calm,Calm,-,N/A,,Scattered Clouds,0,2013-08-09 02:15:00
10:35 PM,78.4,77.0,95,30.11,10.0,SSE,3.5,-,N/A,,Mostly Cloudy,150,2013-08-09 02:35:00
10:55 PM,79.7,75.7,88,30.10,10.0,Calm,Calm,-,N/A,,Scattered Clouds,0,2013-08-09 02:55:00
11:15 PM,78.8,75.7,90,30.10,10.0,Calm,Calm,-,N/A,,Clear,0,2013-08-09 03:15:00
11:35 PM,77.4,75.4,94,30.10,10.0,Calm,Calm,-,N/A,,Clear,0,2013-08-09 03:35:00
11:55 PM,78.1,75.2,91,30.10,10.0,Calm,Calm,-,N/A,,Clear,0,2013-08-09 03:55:00